DW1695 Weather Reports


time (UTC)temp
C
wind
direction
speed
KPH
gust
KPH
rain 1hr
cm
rain 24hr
cm
rain mn
cm
humidity
%
barometer
mb
20260510011504 10 148 3.2 9.7 0.33 1.37 1.37 95 1007.7
20260510011003 10 157 3.2 8.0 0.38 1.37 1.37 95 1007.7
20260510010503 10 160 3.2 8.0 0.43 1.37 1.37 95 1007.7
20260510010004 10 152 3.2 4.8 0.48 1.37 1.37 95 1007.7
20260510005503 10 160 3.2 8.0 0.53 1.37 1.37 95 1007.6
20260510004504 10 171 4.8 9.7 0.71 1.37 1.37 95 1007.3
20260510004004 10 142 4.8 9.7 0.76 1.35 1.35 95 1007.7
20260510003505 10 155 6.4 11.3 0.86 1.32 1.32 95 1007.9
20260510003004 10 153 4.8 8.0 0.84 1.27 1.27 95 1008.3
20260510002504 10 255 8.0 11.3 0.79 1.19 1.19 94 1008.8
20260510002003 10 296 4.8 11.3 0.69 1.09 1.09 94 1008.9
20260510001003 10 333 4.8 11.3 0.58 0.99 0.99 94 1008.6
20260509235503 10 265 8.0 27.4 0.43 0.84 0.84 93 1008.5
20260509234504 10 332 8.0 19.3 0.25 0.66 0.66 90 1007.8
20260509234003 10 22 8.0 32.2 0.18 0.58 0.58 89 1007.5
20260509233503 11 357 11.3 24.1 0.05 0.46 0.46 86 1007.5
20260509233005 12 337 11.3 32.2 0.03 0.43 0.43 80 1007.2
20260509232503 15 248 9.7 27.4 0.00 0.41 0.41 74 1006.8
20260509232003 16 275 3.2 4.8 0.00 0.41 0.41 72 1006.0
20260509231504 16 180 3.2 4.8 0.00 0.41 0.41 69 1005.6
20260509230504 16 198 1.6 4.8 0.00 0.41 0.41 66 1005.7
20260509230004 16 276 4.8 11.3 0.00 0.41 0.41 66 1005.6
20260509225503 16 136 1.6 4.8 0.00 0.41 0.41 66 1005.6
20260509225004 16 176 1.6 9.7 0.00 0.41 0.41 65 1005.5
20260509224504 16 230 1.6 8.0 0.00 0.41 0.41 65 1005.4
20260509223503 16 137 6.4 14.5 0.00 0.41 0.41 65 1004.9
20260509223004 16 144 3.2 14.5 0.00 0.41 0.41 66 1004.9
20260509222504 16 161 4.8 8.0 0.00 0.41 0.41 65 1004.9
20260509222004 17 149 6.4 12.9 0.00 0.41 0.41 63 1005.0
20260509221503 17 184 4.8 20.9 0.00 0.41 0.41 63 1005.0
20260509220503 17 158 6.4 11.3 0.00 0.41 0.41 62 1005.0
20260509220003 17 148 3.2 11.3 0.00 0.41 0.41 61 1004.9
20260509215504 17 223 6.4 12.9 0.00 0.41 0.41 61 1005.0
20260509214003 17 232 8.0 14.5 0.00 0.41 0.41 61 1004.8
20260509213003 17 128 8.0 19.3 0.00 0.41 0.41 61 1004.8
20260509212503 17 150 8.0 16.1 0.00 0.41 0.41 61 1004.9
20260509212004 17 208 9.7 19.3 0.00 0.41 0.41 61 1004.9
20260509211504 17 177 8.0 19.3 0.00 0.41 0.41 62 1005.0
20260509211003 17 236 8.0 16.1 0.00 0.41 0.41 63 1005.0
20260509210504 17 179 11.3 20.9 0.00 0.41 0.41 63 1005.0
20260509210004 17 213 9.7 16.1 0.00 0.41 0.41 63 1005.2
20260509205504 17 201 9.7 20.9 0.00 0.41 0.41 64 1005.2
20260509204504 17 149 4.8 16.1 0.00 0.41 0.41 66 1005.4
20260509204004 17 196 8.0 19.3 0.00 0.41 0.41 65 1005.6
20260509203503 17 156 6.4 12.9 0.00 0.41 0.41 65 1005.6
20260509203004 17 172 8.0 19.3 0.00 0.41 0.41 66 1005.5
20260509202504 17 156 6.4 19.3 0.00 0.41 0.41 66 1005.4
20260509202004 17 142 4.8 19.3 0.00 0.41 0.41 66 1005.6
20260509201003 17 178 4.8 14.5 0.00 0.41 0.41 65 1005.7
20260509200503 17 142 8.0 16.1 0.00 0.41 0.41 66 1005.7
20260509195503 17 160 8.0 14.5 0.00 0.41 0.41 67 1006.0
20260509195005 17 111 4.8 16.1 0.00 0.41 0.41 67 1006.0
20260509194504 16 149 9.7 19.3 0.00 0.41 0.41 67 1005.9
20260509194004 16 165 9.7 20.9 0.00 0.41 0.41 68 1005.9
20260509193505 16 142 9.7 19.3 0.00 0.41 0.41 68 1006.0
20260509193004 16 140 16.1 22.5 0.00 0.41 0.41 67 1006.1
20260509192504 16 145 9.7 22.5 0.00 0.41 0.41 69 1006.2
20260509191503 16 158 9.7 22.5 0.00 0.41 0.41 70 1006.4
20260509190504 15 150 8.0 14.5 0.00 0.41 0.41 72 1006.5
20260509190003 15 151 4.8 11.3 0.00 0.41 0.41 75 1006.6
20260509185504 15 152 9.7 19.3 0.00 0.41 0.41 74 1006.7
20260509185003 15 197 4.8 12.9 0.00 0.41 0.41 74 1006.9
20260509184505 15 188 8.0 16.1 0.00 0.41 0.41 75 1006.9
20260509184004 15 200 4.8 14.5 0.00 0.41 0.41 76 1006.9
20260509183504 15 179 4.8 16.1 0.00 0.41 0.41 76 1006.9
20260509183003 15 62 4.8 11.3 0.00 0.41 0.41 77 1006.9
20260509182504 14 140 8.0 16.1 0.00 0.41 0.41 78 1006.8
20260509182004 14 183 4.8 19.3 0.00 0.41 0.41 80 1006.9
20260509181503 14 174 9.7 27.4 0.00 0.41 0.41 81 1006.8
20260509181004 14 163 4.8 12.9 0.00 0.41 0.41 80 1006.8
20260509180504 14 162 4.8 19.3 0.00 0.41 0.41 83 1007.0
20260509180003 13 204 3.2 8.0 0.00 0.41 0.41 84 1007.0
20260509175504 13 112 3.2 9.7 0.00 0.41 0.41 84 1007.2
20260509175003 13 146 4.8 12.9 0.00 0.41 0.41 83 1007.3
20260509174504 13 155 4.8 14.5 0.00 0.41 0.41 84 1007.3
20260509174004 13 226 6.4 12.9 0.00 0.41 0.41 84 1007.3
20260509173503 13 192 4.8 11.3 0.00 0.41 0.41 86 1007.4
20260509173004 13 174 3.2 11.3 0.00 0.41 0.41 88 1007.4
20260509172504 13 178 3.2 9.7 0.00 0.41 0.41 88 1007.4
20260509172004 12 150 6.4 14.5 0.00 0.41 0.41 88 1007.5
20260509171504 12 143 4.8 14.5 0.00 0.41 0.41 89 1007.5
20260509171004 12 160 3.2 14.5 0.00 0.41 0.41 90 1007.6
20260509170504 12 148 4.8 14.5 0.00 0.41 0.41 90 1007.7
20260509170004 12 156 4.8 12.9 0.00 0.41 0.41 90 1007.8
20260509165503 12 150 4.8 12.9 0.00 0.41 0.41 90 1007.8
20260509165004 12 308 3.2 11.3 0.00 0.41 0.41 91 1007.8
20260509164003 12 139 3.2 9.7 0.00 0.41 0.41 93 1007.7
20260509163504 12 231 4.8 8.0 0.00 0.41 0.41 94 1007.6
20260509163004 11 154 4.8 9.7 0.00 0.41 0.41 94 1007.7
20260509162504 11 312 1.6 4.8 0.00 0.41 0.41 95 1007.7
20260509162002 11 142 4.8 12.9 0.00 0.41 0.41 94 1007.7
20260509161502 11 202 3.2 4.8 0.00 0.41 0.41 95 1007.6
20260509161003 11 133 1.6 4.8 0.00 0.41 0.41 96 1007.6
20260509160503 11 163 4.8 14.5 0.00 0.41 0.41 95 1007.7
20260509160002 11 160 3.2 8.0 0.00 0.41 0.41 96 1007.7
20260509155002 10 161 4.8 11.3 0.00 0.41 0.41 96 1007.8
20260509154504 10 131 3.2 8.0 0.00 0.41 0.41 97 1007.8
20260509154004 10 220 1.6 8.0 0.00 0.41 0.41 97 1007.8
20260509153503 10 157 3.2 8.0 0.00 0.41 0.41 97 1007.8
20260509153003 10 146 4.8 8.0 0.00 0.41 0.41 97 1007.8
20260509152503 10 198 1.6 4.8 0.00 0.41 0.41 97 1007.9
20260509152002 10 330 1.6 4.8 0.00 0.41 0.41 97 1007.9
20260509151502 10 147 3.2 4.8 0.00 0.41 0.41 97 1007.9
20260509151003 10 130 3.2 9.7 0.00 0.41 0.41 97 1007.9
20260509150002 10 148 3.2 4.8 0.00 0.41 0.41 97 1007.9
20260509145003 10 212 1.6 4.8 0.00 0.41 0.41 97 1007.9
20260509144503 10 176 1.6 4.8 0.00 0.41 0.41 97 1007.9
20260509144003 10 153 3.2 9.7 0.00 0.41 0.41 97 1007.9
20260509143503 10 226 3.2 9.7 0.00 0.41 0.41 97 1007.8
20260509143003 10 160 4.8 14.5 0.00 0.41 0.41 97 1007.8
20260509142503 10 176 1.6 8.0 0.00 0.41 0.41 97 1007.9
20260509142003 10 192 1.6 8.0 0.00 0.41 0.41 97 1007.8
20260509141503 10 143 1.6 4.8 0.00 0.41 0.41 97 1007.8
20260509141002 10 201 1.6 4.8 0.00 0.41 0.41 97 1007.8
20260509140504 10 238 1.6 4.8 0.00 0.41 0.41 97 1007.9
20260509140005 10 226 1.6 4.8 0.00 0.41 0.41 97 1007.8
20260509135502 10 230 1.6 3.2 0.00 0.41 0.41 97 1007.8
20260509135003 10 229 3.2 4.8 0.00 0.41 0.41 97 1007.8
20260509134504 9 150 1.6 4.8 0.00 0.41 0.41 97 1007.7
20260509133004 9 172 0.0 9.7 0.00 0.41 0.41 97 1007.9
20260509132503 9 212 4.8 8.0 0.00 0.41 0.41 97 1007.9
20260509132003 9 153 0.0 0.0 0.00 0.41 0.41 98 1007.9
20260509131504 9 155 3.2 4.8 0.00 0.41 0.41 97 1007.9
20260509130503 9 143 4.8 8.0 0.00 0.41 0.41 97 1007.9
20260509130002 9 135 3.2 8.0 0.03 0.41 0.41 97 1008.0
20260509125003 9 140 4.8 8.0 0.03 0.41 0.41 97 1008.1
20260509124503 9 146 3.2 8.0 0.03 0.41 0.41 97 1008.2
20260509124003 9 158 1.6 4.8 0.03 0.43 0.41 97 1008.2
20260509123504 9 167 3.2 4.8 0.03 0.43 0.41 97 1008.3
20260509123003 8 184 1.6 4.8 0.03 0.43 0.41 97 1008.3
20260509122003 8 137 3.2 4.8 0.03 0.48 0.41 97 1008.3
20260509121502 8 151 3.2 4.8 0.03 0.56 0.41 97 1008.4
20260509121003 8 162 3.2 4.8 0.03 0.61 0.41 97 1008.5
20260509120003 8 170 0.0 3.2 0.00 0.58 0.38 97 1008.5
20260509115503 8 167 0.0 0.0 0.00 0.58 0.38 97 1008.5
20260509115002 8 159 0.0 0.0 0.00 0.58 0.38 97 1008.6
20260509114503 8 159 0.0 0.0 0.00 0.58 0.38 97 1008.6
20260509114002 8 159 0.0 0.0 0.00 0.58 0.38 97 1008.5
20260509113504 8 159 0.0 4.8 0.00 0.61 0.38 97 1008.5
20260509113003 8 154 1.6 3.2 0.00 0.61 0.38 97 1008.5
20260509112503 8 169 1.6 4.8 0.00 0.61 0.38 97 1008.5
20260509112003 8 158 3.2 4.8 0.00 0.61 0.38 97 1008.5
20260509111504 8 150 1.6 4.8 0.00 0.61 0.38 97 1008.3
20260509111003 8 153 1.6 3.2 0.00 0.66 0.38 97 1008.3
20260509110503 8 158 1.6 3.2 0.00 0.71 0.38 97 1008.4
20260509110003 8 158 1.6 3.2 0.00 0.71 0.38 97 1008.3
20260509105502 8 160 1.6 3.2 0.00 0.71 0.38 97 1008.3
20260509104503 8 151 1.6 4.8 0.00 0.71 0.38 97 1008.3
20260509103503 8 152 1.6 4.8 0.00 0.71 0.38 97 1008.3
20260509103003 8 164 3.2 4.8 0.00 0.71 0.38 97 1008.3
20260509102503 8 182 1.6 4.8 0.00 0.71 0.38 97 1008.4
20260509102003 8 149 1.6 4.8 0.00 0.71 0.38 97 1008.4
20260509101004 8 160 0.0 4.8 0.00 0.71 0.38 97 1008.5
20260509100503 8 151 0.0 4.8 0.00 0.74 0.38 97 1008.4
20260509100002 8 152 1.6 4.8 0.00 0.74 0.38 97 1008.5
20260509095503 8 155 3.2 4.8 0.03 0.74 0.38 97 1008.5
20260509095004 8 146 1.6 4.8 0.03 0.76 0.38 97 1008.5
20260509094503 8 144 1.6 4.8 0.03 0.76 0.38 97 1008.5
20260509094003 8 185 1.6 3.2 0.03 0.76 0.38 97 1008.5
20260509093005 8 165 0.0 1.6 0.05 0.76 0.38 97 1008.6
20260509092003 8 165 0.0 3.2 0.08 0.76 0.38 96 1008.6
20260509091503 8 166 1.6 3.2 0.10 0.76 0.38 96 1008.5
20260509091003 8 166 0.0 0.0 0.10 0.76 0.38 96 1008.4
20260509090504 8 172 0.0 0.0 0.13 0.76 0.38 96 1008.4
20260509090003 8 173 0.0 3.2 0.13 0.76 0.38 96 1008.3
20260509085502 8 175 1.6 4.8 0.10 0.74 0.36 96 1008.5
20260509085003 8 172 0.0 0.0 0.13 0.74 0.36 96 1008.5
20260509084503 8 172 0.0 0.0 0.13 0.74 0.36 96 1008.5
20260509084003 8 172 0.0 0.0 0.13 0.74 0.36 96 1008.5
20260509083503 8 175 0.0 0.0 0.13 0.71 0.33 96 1008.6
20260509083003 8 175 0.0 0.0 0.15 0.71 0.33 96 1008.6
20260509082503 8 175 0.0 0.0 0.15 0.69 0.30 96 1008.6
20260509082003 8 175 0.0 0.0 0.15 0.69 0.30 96 1008.6
20260509081502 8 176 0.0 0.0 0.15 0.66 0.28 96 1008.6
20260509081003 8 175 0.0 0.0 0.18 0.66 0.28 96 1008.6
20260509080503 8 175 0.0 0.0 0.18 0.64 0.25 96 1008.7
20260509075503 8 160 0.0 0.0 0.18 0.64 0.25 96 1008.7
20260509075004 8 160 0.0 4.8 0.18 0.61 0.23 96 1008.7
20260509074503 8 166 1.6 4.8 0.18 0.61 0.23 96 1008.7
20260509074003 8 167 1.6 3.2 0.18 0.61 0.23 96 1008.8
20260509073503 8 167 1.6 3.2 0.18 0.58 0.20 96 1008.7
20260509073003 8 169 3.2 8.0 0.15 0.56 0.18 96 1008.7
20260509072503 8 212 1.6 4.8 0.13 0.53 0.15 95 1008.8
20260509072003 8 167 3.2 4.8 0.13 0.53 0.15 95 1008.8
20260509070503 8 156 3.2 9.7 0.08 0.46 0.08 95 1008.9
20260509070003 8 165 1.6 4.8 0.08 0.46 0.08 95 1009.0
20260509065503 8 162 1.6 3.2 0.08 0.46 0.08 95 1009.0
20260509065004 8 162 3.2 4.8 0.05 0.43 0.05 95 1009.2
20260509064503 8 167 3.2 4.8 0.05 0.43 0.05 95 1009.2
20260509064003 8 174 3.2 4.8 0.05 0.43 0.05 95 1009.2
20260509063503 8 162 1.6 4.8 0.03 0.41 0.03 95 1009.3
20260509063004 8 161 1.6 4.8 0.03 0.41 0.03 95 1009.4
20260509062503 8 164 3.2 8.0 0.03 0.41 0.03 94 1009.6
20260509062003 8 158 3.2 4.8 0.03 0.41 0.03 95 1009.6
20260509061504 8 176 4.8 9.7 0.03 0.41 0.03 95 1009.6
20260509061003 8 153 3.2 4.8 0.00 0.38 0.00 95 1009.7
20260509060502 8 143 3.2 4.8 0.00 0.38 0.00 95 1009.9
20260509060003 8 149 3.2 4.8 0.00 0.38 0.00 95 1009.9
20260509054003 8 140 3.2 4.8 0.00 0.38 0.00 94 1010.1
20260509052504 8 163 3.2 4.8 0.00 0.38 0.00 94 1010.4
20260509052003 8 165 1.6 4.8 0.00 0.38 0.00 94 1010.4
20260509051503 8 150 3.2 8.0 0.00 0.38 0.00 93 1010.4
20260509051003 8 155 4.8 8.0 0.00 0.38 0.00 93 1010.4
20260509050503 8 160 3.2 4.8 0.00 0.38 0.00 93 1010.4
20260509045003 8 161 1.6 4.8 0.00 0.38 0.00 92 1010.6
20260509044504 8 157 3.2 4.8 0.00 0.38 0.00 92 1010.5
20260509044003 8 162 1.6 4.8 0.00 0.38 0.00 92 1010.6
20260509043504 8 191 3.2 4.8 0.00 0.38 0.00 91 1010.7
20260509042505 9 167 1.6 4.8 0.00 0.38 0.00 90 1010.7
20260509042005 9 166 3.2 4.8 0.00 0.38 0.00 90 1010.7
20260509041505 9 164 3.2 9.7 0.00 0.38 0.00 89 1010.8
20260509041003 9 141 3.2 4.8 0.00 0.38 0.00 89 1010.7
20260509040505 9 150 3.2 4.8 0.00 0.38 0.00 88 1010.7
20260509035503 9 146 3.2 4.8 0.00 0.38 0.38 87 1010.7
20260509035003 10 183 1.6 4.8 0.00 0.38 0.38 87 1010.8
20260509034504 10 237 3.2 4.8 0.00 0.38 0.38 87 1010.8
20260509034004 10 187 3.2 4.8 0.00 0.38 0.38 87 1010.8
20260509033503 10 200 3.2 4.8 0.00 0.38 0.38 86 1010.9
20260509033004 10 181 1.6 4.8 0.00 0.38 0.38 86 1011.0
20260509032504 10 143 1.6 4.8 0.00 0.38 0.38 86 1010.9
20260509032003 10 138 1.6 4.8 0.00 0.38 0.38 86 1010.9
20260509031504 10 215 4.8 8.0 0.00 0.38 0.38 86 1011.0
20260509031003 9 158 1.6 4.8 0.00 0.38 0.38 86 1011.1
20260509030503 9 185 1.6 4.8 0.00 0.38 0.38 85 1011.1
20260509030003 9 179 0.0 0.0 0.00 0.38 0.38 85 1011.2
20260509025503 9 179 1.6 4.8 0.00 0.38 0.38 84 1011.2
20260509024003 9 195 0.0 1.6 0.00 0.38 0.38 82 1011.4
20260509023504 9 195 0.0 3.2 0.00 0.38 0.38 82 1011.4
20260509023003 9 222 1.6 4.8 0.00 0.38 0.38 81 1011.3
20260509022503 8 250 1.6 4.8 0.00 0.38 0.38 80 1011.3
20260509021503 8 271 0.0 0.0 0.00 0.38 0.38 79 1011.3
20260509021004 8 271 0.0 0.0 0.00 0.38 0.38 79 1011.3
20260509020504 9 271 0.0 0.0 0.00 0.38 0.38 79 1011.4
20260509020003 9 271 0.0 0.0 0.00 0.38 0.38 79 1011.3
20260509015503 9 271 0.0 0.0 0.00 0.38 0.38 79 1011.3
20260509015004 9 271 0.0 0.0 0.00 0.38 0.38 78 1011.3
20260509014503 9 271 0.0 0.0 0.00 0.38 0.38 77 1011.2
20260509013504 9 273 0.0 0.0 0.00 0.38 0.38 77 1011.2
20260509012503 9 273 0.0 0.0 0.00 0.38 0.38 76 1011.2
20260509012003 9 273 0.0 0.0 0.00 0.38 0.38 76 1011.1